Change the Weather History Date:

Sunday, January 5, 2014

  Actual Average (KMWA) Record (KMWA)
Temperature  
Mean Temperature 21 °F -  
Max Temperature 36 °F 38 °F 60 °F (1998)
Min Temperature 5 °F 19 °F -1 °F (1972)
Degree Days  
Heating Degree Days 44    
Moisture  
Dew Point 25 °F    
Average Humidity 92    
Maximum Humidity 100    
Minimum Humidity 64    
Precipitation  
Precipitation 1.06 in - - ()
Sea Level Pressure  
Sea Level Pressure 29.91 in    
Wind  
Wind Speed 10 mph (North)    
Max Wind Speed 29 mph    
Max Gust Speed 41 mph    
Visibility 4 miles    
Events Rain , Snow    
Averages and records for this station are not official NWS values.
T = Trace of Precipitation, MM = Missing Value Source: NWS Daily Summary

Daily Weather History Graph

Daily Weather History Graph

Search for Another Location

Airport or City:

Trip Planner

Search our weather history database for the weather conditions in past years. The results will help you decide how hot, cold, wet, or windy it might be!

Date:

Astronomy

Jan. 05, 2014 Rise Set
Actual Time 7:10 AM CST 4:49 PM CST
Civil Twilight 6:40 AM CST 5:18 PM CST
Nautical Twilight 6:08 AM CST 5:51 PM CST
Astronomical Twilight 5:36 AM CST 6:23 PM CST
Moon 9:57 AM CST (1/5) 10:10 PM CST (1/5)
Length of Visible Light 10h 37m
Length of Day
9h 39m
Waxing Crescent, 25% of the Moon is Illuminated
Jan 5
Waxing Crescent
Jan 7
First Quarter
Jan 15
Full
Jan 23
Last Quarter
Jan 30
New

Hourly Weather History & Observations

Time (CST) Temp. Windchill Dew Point Humidity Pressure Visibility Wind Dir Wind Speed Gust Speed Precip Events Conditions
12:15 AM 36.0 °F 33.3 °F 32.0 °F 86% 29.99 in 10.0 mi NNE 3.5 mph - N/A Rain Light Rain
12:35 AM 35.8 °F 31.9 °F 32.5 °F 88% 29.98 in 10.0 mi North 4.6 mph - 0.01 in Rain Rain
12:55 AM 35.6 °F 30.7 °F 33.3 °F 91% 29.97 in 10.0 mi NNE 5.8 mph - 0.01 in   Light Drizzle
1:15 AM 35.6 °F 31.7 °F 33.4 °F 92% 29.97 in 10.0 mi North 4.6 mph - N/A   Light Drizzle
1:35 AM 36.0 °F 31.1 °F 32.0 °F 86% 29.97 in 10.0 mi NNE 5.8 mph - N/A   Light Drizzle
1:55 AM 36.5 °F 32.7 °F 32.2 °F 84% 29.97 in 10.0 mi North 4.6 mph - N/A   Overcast
2:15 AM 35.6 °F 29.9 °F 32.2 °F 87% 29.96 in 10.0 mi North 6.9 mph - N/A Rain Rain
2:35 AM 35.1 °F 30.1 °F 33.4 °F 94% 29.96 in 4.0 mi NNE 5.8 mph - N/A   Drizzle
2:55 AM 35.1 °F 30.1 °F 34.5 °F 98% 29.94 in 5.0 mi NE 5.8 mph - N/A Rain Rain
3:15 AM 35.1 °F 31.0 °F 35.1 °F 100% 29.94 in 4.0 mi ENE 4.6 mph - 0.01 in   Drizzle
3:35 AM 35.1 °F 29.3 °F 35.1 °F 100% 29.93 in 4.0 mi NE 6.9 mph - 0.01 in   Drizzle
3:55 AM 35.1 °F 31.0 °F 35.1 °F 100% 29.92 in 3.0 mi ENE 4.6 mph - 0.02 in Rain Light Rain
4:15 AM 35.1 °F 31.0 °F 35.1 °F 100% 29.92 in 2.5 mi NE 4.6 mph - 0.02 in Rain Rain
4:35 AM 35.2 °F 31.2 °F 35.2 °F 100% 29.91 in 2.5 mi ENE 4.6 mph - 0.06 in   Overcast
4:55 AM 35.2 °F 30.3 °F 35.2 °F 100% 29.90 in 2.0 mi East 5.8 mph - 0.10 in   Overcast
5:15 AM 35.8 °F 30.1 °F 35.8 °F 100% 29.89 in 2.5 mi ENE 6.9 mph - 0.02 in Rain Light Rain
5:35 AM 35.8 °F 29.4 °F 35.8 °F 100% 29.88 in 3.0 mi East 8.1 mph - 0.05 in Rain Rain
5:55 AM 35.6 °F 29.9 °F 35.6 °F 100% 29.87 in 3.0 mi East 6.9 mph - 0.09 in Rain Rain
6:15 AM 35.8 °F 28.8 °F 35.8 °F 100% 29.85 in 4.0 mi East 9.2 mph - 0.01 in Rain Light Rain
6:35 AM 35.8 °F 28.3 °F 35.8 °F 100% 29.85 in 4.0 mi East 10.4 mph - 0.02 in Rain Light Rain
6:55 AM 35.8 °F 29.4 °F 35.8 °F 100% 29.84 in 4.0 mi ESE 8.1 mph - 0.03 in Rain Rain
7:15 AM 35.8 °F 29.4 °F 35.8 °F 100% 29.84 in 2.5 mi ESE 8.1 mph - N/A   Drizzle
7:35 AM 35.8 °F 30.1 °F 35.8 °F 100% 29.82 in 2.5 mi East 6.9 mph - 0.01 in   Light Drizzle
7:55 AM 35.8 °F 29.4 °F 35.8 °F 100% 29.81 in 2.0 mi East 8.1 mph - 0.02 in Rain Light Rain
8:15 AM 35.8 °F 30.9 °F 35.8 °F 100% 29.81 in 1.5 mi East 5.8 mph - 0.06 in Rain Light Rain
8:35 AM 35.8 °F 31.9 °F 35.8 °F 100% 29.82 in 1.2 mi East 4.6 mph - 0.16 in Snow Light Snow
8:55 AM 35.8 °F 28.3 °F 35.8 °F 100% 29.79 in 2.0 mi ESE 10.4 mph - 0.20 in Rain Rain
9:15 AM 36.5 °F 29.2 °F 36.5 °F 100% 29.78 in 1.5 mi ESE 10.4 mph - 0.06 in   Overcast
9:35 AM 36.5 °F 30.3 °F 36.5 °F 100% 29.77 in 1.8 mi East 8.1 mph - 0.12 in Snow Snow
9:55 AM 36.5 °F 29.2 °F 36.5 °F 100% 29.76 in 1.5 mi ESE 10.4 mph - 0.17 in Rain Rain
10:15 AM 36.7 °F 32.9 °F 36.7 °F 100% 29.75 in 1.0 mi SE 4.6 mph - 0.07 in   Overcast
10:35 AM 36.9 °F 32.2 °F 36.9 °F 100% 29.73 in 1.2 mi ESE 5.8 mph - 0.15 in Snow Light Snow
10:55 AM 36.5 °F 32.7 °F 36.5 °F 100% 29.72 in 1.0 mi ESE 4.6 mph - 0.25 in Snow Light Snow
11:15 AM 36.5 °F 32.7 °F 36.5 °F 100% 29.70 in 1.2 mi ESE 4.6 mph - 0.06 in Rain Light Rain
11:35 AM 36.5 °F 33.9 °F 36.5 °F 100% 29.67 in 1.8 mi East 3.5 mph - 0.08 in Rain Rain
11:55 AM 36.5 °F 31.8 °F 36.5 °F 100% 29.67 in 1.5 mi WNW 5.8 mph - 0.11 in Rain Light Rain
12:15 PM 36.5 °F 31.0 °F 36.5 °F 100% 29.66 in 4.0 mi NW 6.9 mph - 0.01 in Rain Light Rain
12:35 PM 35.2 °F 27.1 °F 35.2 °F 100% 29.66 in 2.5 mi NNW 11.5 mph - 0.01 in   Heavy Drizzle
12:55 PM 34.5 °F 26.2 °F 34.5 °F 100% 29.67 in 1.5 mi NW 11.5 mph - 0.03 in Rain Light Rain
1:15 PM 33.4 °F 24.3 °F 33.4 °F 100% 29.66 in 1.5 mi NW 12.7 mph 16.1 mph 0.01 in Snow Light Snow
1:35 PM 32.5 °F 23.7 °F 32.5 °F 100% 29.67 in 1.2 mi WNW 11.5 mph 17.3 mph 0.03 in Snow Light Snow
1:55 PM 31.8 °F 20.2 °F 31.8 °F 100% 29.70 in 1.0 mi WNW 18.4 mph 27.6 mph 0.03 in Snow Light Snow
2:15 PM 30.2 °F 17.8 °F 30.2 °F 100% 29.71 in 0.5 mi WNW 19.6 mph 24.2 mph N/A Snow Light Snow
2:35 PM 29.7 °F 17.4 °F 29.7 °F 100% 29.74 in 0.5 mi NNW 18.4 mph - N/A Snow Snow
2:55 PM 26.6 °F 13.8 °F 26.2 °F 99% 29.76 in 0.5 mi NNW 17.3 mph 33.4 mph N/A Snow Light Snow
3:15 PM 23.5 °F 8.0 °F 23.0 °F 98% 29.79 in 0.5 mi NNW 23.0 mph 32.2 mph N/A Snow Light Snow
3:35 PM 22.5 °F 5.9 °F 21.6 °F 96% 29.80 in 0.5 mi NNW 25.3 mph 31.1 mph N/A Snow Snow
3:55 PM 21.9 °F 7.3 °F 20.1 °F 93% 29.83 in 1.5 mi NNW 18.4 mph 26.5 mph N/A Snow Light Snow
4:15 PM 21.6 °F 6.5 °F 19.4 °F 91% 29.84 in 1.5 mi NNW 19.6 mph 27.6 mph N/A Snow Light Snow
4:35 PM 21.2 °F 6.4 °F 19.4 °F 93% 29.86 in 1.0 mi NNW 18.4 mph 26.5 mph N/A Snow Light Snow
4:55 PM 20.1 °F 4.2 °F 18.0 °F 91% 29.88 in 1.2 mi NNW 20.7 mph 32.2 mph N/A Snow Light Snow
5:15 PM 19.0 °F 2.4 °F 16.9 °F 91% 29.90 in 1.0 mi NNW 21.9 mph 31.1 mph N/A Snow Light Snow
5:35 PM 18.7 °F 1.1 °F 15.8 °F 89% 29.93 in 2.5 mi NNW 24.2 mph 36.8 mph N/A Snow Light Snow
5:55 PM 18.5 °F 2.9 °F 15.3 °F 87% 29.96 in 2.5 mi NNW 18.4 mph 23.0 mph N/A Snow Light Snow
6:15 PM 18.0 °F 0.6 °F 14.5 °F 86% 29.98 in 2.0 mi NNW 23.0 mph 31.1 mph N/A Snow Light Snow
6:35 PM 17.6 °F 0.5 °F 13.5 °F 84% 30.00 in 2.5 mi NNW 21.9 mph 41.4 mph N/A Snow Light Snow
6:55 PM 17.2 °F -0.4 °F 12.7 °F 83% 30.03 in 2.5 mi NNW 23.0 mph 38.0 mph N/A Snow Light Snow
7:15 PM 16.2 °F -2.6 °F 12.7 °F 86% 30.04 in 1.2 mi NNW 25.3 mph 32.2 mph N/A Snow Light Snow
7:35 PM 15.4 °F -2.4 °F 12.0 °F 86% 30.06 in 1.5 mi NNW 21.9 mph 29.9 mph N/A Snow Light Snow
7:55 PM 14.5 °F -2.7 °F 10.8 °F 85% 30.08 in 1.2 mi NNW 19.6 mph 34.5 mph N/A Snow Light Snow
8:15 PM 13.6 °F -7.0 °F 10.0 °F 86% 30.11 in 1.0 mi NNW 28.8 mph 35.7 mph N/A Snow Light Snow
8:35 PM 12.2 °F -8.9 °F 7.7 °F 82% 30.12 in 1.2 mi NNW 28.8 mph 40.3 mph N/A Snow Light Snow
8:55 PM 12.6 °F -6.6 °F 8.1 °F 82% 30.14 in 3.0 mi NNW 23.0 mph 29.9 mph N/A Snow Light Snow
9:15 PM 10.9 °F -9.9 °F 5.5 °F 79% 30.16 in 3.0 mi NNW 26.5 mph 34.5 mph N/A Snow Light Snow
9:35 PM 10.8 °F -9.8 °F 4.8 °F 77% 30.18 in 7.0 mi NNW 25.3 mph 32.2 mph N/A   Overcast
9:55 PM 10.0 °F -9.1 °F 4.1 °F 77% 30.20 in 7.0 mi NNW 20.7 mph 35.7 mph N/A   Overcast
10:15 PM 9.5 °F -10.7 °F 0.7 °F 67% 30.21 in 7.0 mi NNW 23.0 mph 34.5 mph N/A   Mostly Cloudy
10:35 PM 9.0 °F -9.5 °F -0.4 °F 66% 30.22 in 10.0 mi NNW 18.4 mph 28.8 mph N/A   Scattered Clouds
10:55 PM 8.6 °F -10.0 °F -1.3 °F 64% 30.23 in 10.0 mi NNW 18.4 mph 31.1 mph N/A   Scattered Clouds
11:15 PM 7.5 °F -13.3 °F -2.2 °F 65% 30.24 in 10.0 mi NNW 23.0 mph 32.2 mph N/A   Scattered Clouds
11:35 PM 6.6 °F -14.1 °F -3.1 °F 64% 30.26 in 10.0 mi NNW 21.9 mph 32.2 mph N/A   Clear
11:55 PM 5.9 °F -12.4 °F -3.8 °F 64% 30.27 in 10.0 mi NNW 16.1 mph 31.1 mph N/A   Clear